QPF
0.00 0.00 0.00 0.00 0.00 0.00 0.00 0.00 0.02 0.02 0.01 0.00 0.00 0.00 0.00 0.00 0.00 0.01 0.01 0.01 0.02 0.02 0.02 0.01 0.01 0.00 0.00 0.00 0.00 0.00 0.00 0.00 0.00 0.00 0.00 0.00 0.00 0.00
0.00 0.00 0.00 0.00 0.00 0.00 0.00 0.00 0.01 0.03 0.03 0.01 0.00 0.00 0.00 0.00 0.01 0.01 0.01 0.01 0.02 0.03 0.02 0.02 0.01 0.00 0.00 0.00 0.00 0.00 0.00 0.00 0.00 0.00 0.00 0.00 0.00 0.00
0.00 0.00 0.00 0.00 0.00 0.00 0.00 0.00 0.01 0.02 0.04 0.02 0.01 0.00 0.00 0.00 0.00 0.00 0.00 0.01 0.02 0.03 0.03 0.02 0.01 0.00 0.00 0.00 0.00 0.00 0.00 0.00 0.00 0.00 0.00 0.00 0.00 0.00
0.00 0.00 0.00 0.00 0.00 0.00 0.01 0.01 0.01 0.02 0.05 0.05 0.02 0.01 0.00 0.00 0.00 0.00 0.00 0.01 0.02 0.05 0.04 0.02 0.02 0.01 0.00 0.00 0.00 0.00 0.00 0.00 0.00 0.00 0.00 0.00 0.00 0.00
0.00 0.00 0.00 0.00 0.00 0.01 0.01 0.02 0.02 0.03 0.05 0.04 0.02 0.00 0.00 0.00 0.00 0.00 0.01 0.01 0.02 0.03 0.02 0.02 0.01 0.00 0.00 0.00 0.00 0.00 0.00 0.00 0.00 0.00 0.00 0.00 0.00 0.00
0.00 0.00 0.00 0.00 0.00 0.01 0.02 0.03 0.04 0.03 0.02 0.01 0.01 0.00 0.00 0.00 0.00 0.01 0.02 0.02 0.01 0.01 0.01 0.00 0.00 0.00 0.00 0.01 0.01 0.01 0.00 0.00 0.00 0.00 0.00 0.00 0.00 0.00
0.00 0.00 0.00 0.00 0.01 0.04 0.04 0.03 0.02 0.01 0.01 0.01 0.01 0.01 0.00 0.01 0.01 0.02 0.04 0.03 0.02 0.01 0.01 0.00 0.00 0.01 0.04 0.07 0.07 0.04 0.02 0.01 0.00 0.00 0.00 0.00 0.00 0.01
0.00 0.00 0.00 0.00 0.01 0.02 0.02 0.01 0.01 0.01 0.01 0.02 0.02 0.01 0.01 0.02 0.03 0.05 0.06 0.04 0.03 0.01 0.01 0.00 0.02 0.07 0.14 0.15 0.15 0.08 0.03 0.01 0.01 0.01 0.00 0.00 0.01 0.04
0.00 0.00 0.00 0.00 0.00 0.00 0.00 0.00 0.00 0.00 0.02 0.06 0.08 0.05 0.03 0.04 0.05 0.05 0.04 0.03 0.03 0.02 0.01 0.01 0.05 0.13 0.19 0.21 0.26 0.13 0.05 0.03 0.02 0.02 0.02 0.03 0.05 0.08
0.00 0.00 0.00 0.00 0.00 0.00 0.00 0.00 0.00 0.01 0.04 0.08 0.10 0.08 0.07 0.06 0.05 0.05 0.04 0.03 0.02 0.01 0.01 0.02 0.06 0.12 0.18 0.25 0.38 0.32 0.16 0.08 0.05 0.04 0.05 0.08 0.11 0.14
0.00 0.00 0.00 0.00 0.01 0.01 0.01 0.00 0.00 0.02 0.07 0.12 0.13 0.11 0.08 0.06 0.04 0.04 0.03 0.03 0.03 0.02 0.01 0.03 0.07 0.13 0.24 0.36 0.39 0.42 0.30 0.20 0.13 0.10 0.12 0.15 0.18 0.22
0.00 0.00 0.00 0.01 0.01 0.01 0.01 0.01 0.02 0.05 0.13 0.19 0.18 0.11 0.07 0.05 0.05 0.04 0.04 0.06 0.07 0.05 0.02 0.02 0.06 0.14 0.26 0.40 0.37 0.27 0.26 0.31 0.32 0.31 0.28 0.24 0.19 0.19
0.01 0.00 0.01 0.02 0.02 0.01 0.01 0.02 0.06 0.12 0.20 0.25 0.20 0.11 0.06 0.04 0.05 0.06 0.06 0.06 0.06 0.05 0.03 0.03 0.07 0.14 0.20 0.30 0.37 0.33 0.26 0.28 0.33 0.44 0.50 0.41 0.26 0.19
0.03 0.03 0.03 0.04 0.02 0.01 0.02 0.07 0.12 0.18 0.23 0.23 0.16 0.09 0.05 0.03 0.04 0.04 0.03 0.02 0.02 0.02 0.01 0.02 0.06 0.12 0.15 0.17 0.27 0.34 0.38 0.42 0.43 0.48 0.53 0.51 0.39 0.32
0.04 0.05 0.04 0.03 0.02 0.03 0.07 0.12 0.16 0.20 0.21 0.17 0.10 0.08 0.06 0.04 0.02 0.02 0.01 0.01 0.01 0.01 0.01 0.02 0.05 0.12 0.18 0.17 0.22 0.28 0.38 0.50 0.52 0.52 0.51 0.48 0.44 0.39
0.05 0.03 0.03 0.03 0.04 0.07 0.11 0.15 0.17 0.20 0.19 0.11 0.06 0.05 0.04 0.03 0.02 0.01 0.01 0.01 0.02 0.02 0.02 0.02 0.05 0.11 0.19 0.23 0.25 0.30 0.34 0.47 0.55 0.51 0.48 0.44 0.38 0.32
0.06 0.04 0.04 0.05 0.08 0.11 0.13 0.15 0.15 0.16 0.14 0.08 0.04 0.04 0.03 0.03 0.02 0.02 0.02 0.02 0.02 0.03 0.04 0.04 0.05 0.09 0.16 0.22 0.27 0.31 0.34 0.38 0.41 0.37 0.30 0.22 0.17 0.13
0.05 0.06 0.08 0.10 0.13 0.15 0.15 0.16 0.15 0.13 0.10 0.07 0.05 0.04 0.03 0.03 0.03 0.02 0.02 0.03 0.03 0.03 0.03 0.03 0.02 0.03 0.07 0.11 0.14 0.17 0.20 0.21 0.21 0.18 0.12 0.08 0.05 0.04
0.04 0.08 0.12 0.15 0.17 0.17 0.16 0.15 0.16 0.14 0.11 0.07 0.05 0.04 0.03 0.03 0.02 0.02 0.03 0.04 0.04 0.03 0.02 0.01 0.00 0.00 0.01 0.03 0.06 0.07 0.08 0.08 0.06 0.05 0.04 0.03 0.02 0.01
0.05 0.11 0.15 0.17 0.17 0.17 0.16 0.16 0.17 0.16 0.11 0.07 0.05 0.04 0.03 0.02 0.03 0.03 0.03 0.03 0.02 0.01 0.01 0.00 0.00 0.00 0.00 0.00 0.01 0.01 0.02 0.02 0.01 0.01 0.01 0.01 0.01 0.00
0.06 0.10 0.15 0.16 0.15 0.13 0.12 0.12 0.14 0.15 0.12 0.09 0.06 0.04 0.02 0.03 0.04 0.04 0.03 0.01 0.01 0.00 0.00 0.00 0.00 0.00 0.00 0.00 0.00 0.00 0.00 0.00 0.00 0.00 0.00 0.00 0.00 0.00
0.05 0.09 0.13 0.13 0.11 0.10 0.08 0.07 0.08 0.09 0.09 0.07 0.05 0.04 0.04 0.04 0.04 0.03 0.01 0.01 0.00 0.00 0.00 0.00 0.00 0.00 0.00 0.00 0.00 0.00 0.00 0.00 0.00 0.00 0.00 0.00 0.00 0.00
0.05 0.06 0.08 0.10 0.09 0.07 0.06 0.05 0.04 0.05 0.06 0.05 0.05 0.04 0.04 0.04 0.03 0.02 0.01 0.00 0.00 0.00 0.00 0.00 0.00 0.00 0.00 0.00 0.00 0.00 0.00 0.00 0.00 0.00 0.00 0.00 0.00 0.00
MSLP
1019.63 1019.49 1019.27 1018.95 1018.50 1017.93 1017.26 1016.52 1015.75 1015.01 1014.33 1013.73 1013.22 1012.78 1012.40 1012.04 1011.69 1011.34 1010.98 1010.64 1010.33 1010.08 1009.90 1009.81 1009.81 1009.88 1010.01 1010.19 1010.38 1010.60 1010.82 1011.06 1011.33 1011.61 1011.91 1012.21 1012.50 1012.74
1019.19 1019.02 1018.78 1018.45 1018.00 1017.45 1016.80 1016.09 1015.36 1014.64 1013.97 1013.36 1012.82 1012.35 1011.92 1011.52 1011.14 1010.78 1010.43 1010.13 1009.88 1009.70 1009.61 1009.59 1009.66 1009.78 1009.94 1010.12 1010.31 1010.50 1010.70 1010.92 1011.15 1011.42 1011.69 1011.97 1012.23 1012.44
1018.66 1018.46 1018.19 1017.84 1017.39 1016.85 1016.24 1015.56 1014.87 1014.18 1013.53 1012.92 1012.37 1011.87 1011.42 1011.00 1010.62 1010.27 1009.97 1009.72 1009.54 1009.44 1009.41 1009.45 1009.54 1009.65 1009.78 1009.91 1010.04 1010.16 1010.30 1010.47 1010.68 1010.93 1011.21 1011.50 1011.78 1012.00
1018.11 1017.86 1017.55 1017.18 1016.73 1016.20 1015.61 1014.97 1014.31 1013.65 1013.01 1012.41 1011.85 1011.35 1010.89 1010.48 1010.12 1009.82 1009.58 1009.41 1009.31 1009.27 1009.28 1009.33 1009.38 1009.43 1009.45 1009.45 1009.44 1009.44 1009.47 1009.56 1009.73 1009.98 1010.30 1010.65 1011.00 1011.30
1017.59 1017.28 1016.94 1016.53 1016.07 1015.54 1014.96 1014.33 1013.69 1013.04 1012.41 1011.81 1011.25 1010.74 1010.30 1009.92 1009.62 1009.39 1009.24 1009.15 1009.13 1009.14 1009.17 1009.17 1009.14 1009.04 1008.89 1008.69 1008.47 1008.27 1008.15 1008.14 1008.26 1008.52 1008.90 1009.36 1009.84 1010.28
1017.12 1016.76 1016.36 1015.92 1015.43 1014.89 1014.30 1013.67 1013.03 1012.38 1011.73 1011.12 1010.56 1010.06 1009.64 1009.31 1009.08 1008.94 1008.88 1008.89 1008.94 1009.00 1009.01 1008.94 1008.77 1008.49 1008.10 1007.64 1007.17 1006.75 1006.44 1006.30 1006.36 1006.63 1007.09 1007.68 1008.34 1008.97
1016.69 1016.26 1015.81 1015.33 1014.81 1014.25 1013.64 1013.00 1012.33 1011.66 1010.99 1010.36 1009.79 1009.30 1008.91 1008.64 1008.48 1008.44 1008.49 1008.60 1008.72 1008.79 1008.78 1008.62 1008.30 1007.81 1007.17 1006.45 1005.71 1005.04 1004.54 1004.26 1004.26 1004.55 1005.09 1005.82 1006.66 1007.52
1016.25 1015.77 1015.27 1014.75 1014.19 1013.60 1012.97 1012.30 1011.61 1010.91 1010.22 1009.57 1009.00 1008.52 1008.16 1007.94 1007.86 1007.91 1008.06 1008.26 1008.44 1008.54 1008.49 1008.25 1007.79 1007.12 1006.26 1005.30 1004.32 1003.44 1002.76 1002.36 1002.30 1002.59 1003.20 1004.06 1005.07 1006.13
1015.78 1015.24 1014.69 1014.13 1013.54 1012.92 1012.26 1011.58 1010.87 1010.15 1009.45 1008.80 1008.23 1007.77 1007.45 1007.28 1007.28 1007.41 1007.64 1007.91 1008.15 1008.27 1008.22 1007.92 1007.37 1006.57 1005.56 1004.42 1003.28 1002.24 1001.44 1000.95 1000.84 1001.12 1001.77 1002.71 1003.85 1005.06
1015.25 1014.65 1014.05 1013.44 1012.83 1012.19 1011.53 1010.85 1010.14 1009.44 1008.75 1008.11 1007.57 1007.14 1006.87 1006.76 1006.81 1007.01 1007.30 1007.64 1007.92 1008.08 1008.03 1007.73 1007.15 1006.30 1005.23 1004.04 1002.83 1001.73 1000.87 1000.33 1000.19 1000.46 1001.11 1002.08 1003.27 1004.55
1014.66 1013.99 1013.35 1012.71 1012.07 1011.44 1010.79 1010.13 1009.46 1008.80 1008.17 1007.59 1007.10 1006.73 1006.51 1006.46 1006.56 1006.80 1007.14 1007.51 1007.83 1008.03 1008.02 1007.76 1007.22 1006.42 1005.40 1004.25 1003.09 1002.03 1001.19 1000.67 1000.52 1000.77 1001.39 1002.33 1003.48 1004.74
1014.05 1013.32 1012.63 1011.96 1011.32 1010.69 1010.08 1009.48 1008.88 1008.31 1007.77 1007.29 1006.89 1006.60 1006.45 1006.44 1006.59 1006.86 1007.21 1007.60 1007.94 1008.17 1008.22 1008.04 1007.60 1006.93 1006.05 1005.06 1004.04 1003.11 1002.38 1001.93 1001.80 1002.03 1002.59 1003.44 1004.49 1005.65
1013.48 1012.69 1011.95 1011.26 1010.62 1010.02 1009.46 1008.94 1008.45 1008.00 1007.58 1007.23 1006.95 1006.76 1006.69 1006.74 1006.91 1007.18 1007.53 1007.91 1008.25 1008.50 1008.61 1008.53 1008.24 1007.75 1007.09 1006.32 1005.54 1004.82 1004.25 1003.91 1003.84 1004.05 1004.54 1005.27 1006.18 1007.18
1013.02 1012.18 1011.40 1010.69 1010.05 1009.49 1008.99 1008.57 1008.20 1007.89 1007.63 1007.42 1007.28 1007.21 1007.22 1007.32 1007.50 1007.76 1008.08 1008.42 1008.74 1008.99 1009.15 1009.17 1009.03 1008.75 1008.34 1007.85 1007.34 1006.87 1006.51 1006.32 1006.33 1006.55 1006.97 1007.58 1008.31 1009.13
1012.72 1011.84 1011.03 1010.31 1009.68 1009.16 1008.73 1008.41 1008.16 1008.00 1007.89 1007.85 1007.84 1007.89 1007.98 1008.12 1008.30 1008.53 1008.79 1009.06 1009.33 1009.57 1009.76 1009.86 1009.87 1009.79 1009.63 1009.42 1009.19 1008.99 1008.86 1008.83 1008.93 1009.18 1009.55 1010.04 1010.62 1011.27
1012.62 1011.72 1010.90 1010.18 1009.56 1009.07 1008.71 1008.47 1008.35 1008.31 1008.35 1008.44 1008.57 1008.72 1008.88 1009.04 1009.21 1009.39 1009.58 1009.78 1009.98 1010.18 1010.37 1010.53 1010.65 1010.75 1010.81 1010.85 1010.88 1010.93 1011.02 1011.16 1011.36 1011.64 1011.98 1012.40 1012.86 1013.36
1012.72 1011.84 1011.02 1010.31 1009.71 1009.26 1008.94 1008.78 1008.74 1008.81 1008.96 1009.17 1009.39 1009.62 1009.82 1010.00 1010.15 1010.28 1010.40 1010.51 1010.64 1010.78 1010.94 1011.13 1011.34 1011.57 1011.80 1012.04 1012.30 1012.55 1012.82 1013.11 1013.42 1013.74 1014.08 1014.45 1014.83 1015.24
1013.02 1012.18 1011.40 1010.70 1010.13 1009.70 1009.43 1009.31 1009.33 1009.46 1009.69 1009.96 1010.25 1010.53 1010.76 1010.94 1011.06 1011.14 1011.19 1011.23 1011.28 1011.37 1011.51 1011.71 1011.96 1012.27 1012.63 1013.02 1013.42 1013.84 1014.25 1014.65 1015.03 1015.40 1015.75 1016.10 1016.45 1016.82
1013.49 1012.71 1011.98 1011.33 1010.78 1010.38 1010.12 1010.02 1010.06 1010.22 1010.48 1010.78 1011.10 1011.39 1011.63 1011.81 1011.91 1011.95 1011.95 1011.94 1011.94 1011.99 1012.11 1012.30 1012.58 1012.95 1013.37 1013.85 1014.35 1014.86 1015.36 1015.84 1016.27 1016.68 1017.05 1017.40 1017.74 1018.09
1014.11 1013.41 1012.74 1012.13 1011.62 1011.23 1010.98 1010.87 1010.91 1011.06 1011.30 1011.60 1011.91 1012.20 1012.43 1012.60 1012.69 1012.71 1012.70 1012.66 1012.65 1012.69 1012.80 1013.00 1013.30 1013.68 1014.15 1014.67 1015.22 1015.77 1016.31 1016.81 1017.27 1017.69 1018.07 1018.43 1018.77 1019.12
1014.85 1014.22 1013.62 1013.06 1012.58 1012.19 1011.94 1011.81 1011.81 1011.93 1012.14 1012.40 1012.68 1012.94 1013.16 1013.31 1013.41 1013.44 1013.43 1013.42 1013.42 1013.48 1013.61 1013.83 1014.15 1014.55 1015.03 1015.56 1016.11 1016.67 1017.20 1017.70 1018.15 1018.56 1018.94 1019.29 1019.63 1019.99
1015.68 1015.13 1014.58 1014.06 1013.59 1013.22 1012.94 1012.78 1012.74 1012.80 1012.95 1013.15 1013.39 1013.61 1013.81 1013.97 1014.07 1014.14 1014.17 1014.21 1014.26 1014.37 1014.54 1014.80 1015.14 1015.55 1016.03 1016.55 1017.08 1017.60 1018.10 1018.57 1018.99 1019.37 1019.73 1020.06 1020.40 1020.75
1016.59 1016.08 1015.57 1015.07 1014.62 1014.23 1013.93 1013.73 1013.63 1013.63 1013.71 1013.85 1014.03 1014.22 1014.40 1014.56 1014.69 1014.80 1014.89 1014.99 1015.12 1015.30 1015.53 1015.84 1016.20 1016.63 1017.10 1017.59 1018.08 1018.56 1019.01 1019.42 1019.80 1020.14 1020.47 1020.78 1021.10 1021.45
Thickness
5474 5470 5466 5463 5460 5457 5454 5452 5453 5460 5465 5464 5463 5463 5463 5464 5467 5469 5472 5476 5480 5485 5488 5492 5494 5497 5499 5502 5506 5510 5515 5519 5522 5526 5530 5534 5540 5547
5462 5458 5454 5450 5447 5444 5441 5439 5438 5441 5448 5453 5452 5452 5452 5455 5458 5461 5464 5468 5473 5478 5483 5487 5490 5491 5492 5494 5497 5500 5503 5507 5510 5514 5518 5522 5528 5535
5449 5444 5441 5437 5435 5432 5430 5429 5429 5430 5436 5443 5442 5444 5444 5446 5450 5453 5457 5461 5467 5472 5477 5482 5483 5484 5485 5487 5489 5491 5494 5497 5500 5503 5507 5512 5517 5524
5436 5430 5427 5425 5422 5421 5421 5422 5424 5424 5427 5433 5436 5436 5437 5440 5444 5447 5452 5457 5462 5466 5469 5472 5474 5475 5477 5479 5481 5483 5486 5488 5491 5494 5498 5502 5508 5514
5421 5416 5414 5412 5411 5411 5412 5415 5418 5420 5421 5423 5428 5430 5433 5436 5440 5445 5449 5453 5456 5459 5462 5464 5466 5467 5469 5471 5473 5476 5479 5483 5486 5488 5491 5495 5500 5506
5407 5403 5401 5400 5401 5403 5406 5410 5413 5415 5415 5417 5422 5427 5432 5437 5439 5444 5449 5450 5452 5454 5456 5457 5458 5460 5462 5465 5469 5472 5476 5479 5483 5486 5489 5492 5496 5502
5397 5393 5392 5393 5395 5398 5402 5406 5407 5409 5411 5414 5420 5427 5433 5437 5441 5445 5448 5447 5447 5448 5449 5451 5453 5455 5457 5461 5465 5470 5475 5481 5485 5488 5490 5492 5495 5500
5389 5387 5386 5387 5390 5393 5397 5401 5402 5405 5409 5412 5419 5426 5434 5439 5443 5446 5445 5444 5445 5444 5444 5446 5448 5450 5452 5456 5462 5472 5485 5495 5498 5497 5495 5495 5496 5499
5382 5381 5382 5384 5386 5389 5394 5398 5401 5403 5408 5413 5421 5430 5438 5443 5446 5447 5445 5445 5444 5441 5440 5443 5444 5445 5449 5455 5465 5483 5500 5509 5509 5504 5500 5497 5497 5499
5378 5379 5380 5383 5386 5389 5393 5398 5402 5408 5413 5419 5427 5437 5443 5447 5448 5448 5446 5441 5439 5438 5437 5438 5439 5441 5445 5451 5463 5481 5497 5502 5502 5500 5498 5496 5497 5499
5378 5381 5382 5384 5388 5390 5393 5399 5405 5413 5420 5427 5435 5443 5447 5448 5448 5446 5443 5442 5440 5437 5435 5435 5435 5436 5439 5444 5456 5471 5485 5491 5492 5493 5494 5495 5496 5499
5378 5381 5384 5386 5389 5391 5395 5399 5406 5416 5423 5431 5437 5442 5444 5444 5444 5445 5444 5442 5440 5438 5435 5434 5434 5433 5435 5436 5445 5458 5470 5477 5482 5485 5488 5493 5498 5503
5375 5379 5383 5386 5389 5392 5396 5402 5409 5416 5424 5431 5434 5437 5438 5439 5440 5440 5441 5440 5439 5437 5435 5435 5433 5432 5431 5432 5437 5444 5454 5460 5466 5471 5477 5485 5493 5500
5373 5377 5381 5385 5390 5395 5400 5407 5414 5422 5427 5430 5432 5433 5434 5435 5435 5436 5437 5437 5437 5436 5435 5435 5433 5432 5433 5434 5434 5436 5441 5446 5453 5459 5464 5471 5477 5482
5372 5376 5381 5386 5392 5399 5405 5412 5419 5425 5427 5429 5429 5429 5429 5430 5432 5434 5435 5434 5434 5433 5433 5434 5434 5433 5435 5435 5433 5435 5437 5436 5442 5449 5453 5458 5463 5471
5373 5377 5383 5389 5395 5401 5408 5415 5420 5423 5425 5426 5425 5424 5425 5428 5430 5432 5432 5432 5432 5431 5431 5433 5434 5435 5435 5434 5434 5434 5435 5433 5432 5440 5446 5451 5456 5466
5372 5378 5385 5391 5397 5404 5410 5414 5418 5421 5422 5423 5423 5423 5424 5426 5427 5428 5429 5430 5431 5431 5431 5431 5432 5433 5433 5434 5434 5433 5433 5433 5435 5439 5446 5453 5457 5464
5373 5379 5384 5390 5397 5403 5409 5414 5417 5419 5420 5421 5421 5422 5423 5424 5424 5425 5426 5428 5429 5428 5428 5429 5431 5433 5434 5431 5430 5433 5435 5437 5438 5442 5449 5457 5458 5459
5375 5378 5383 5390 5396 5403 5408 5413 5415 5416 5417 5419 5420 5420 5421 5421 5422 5423 5424 5426 5427 5427 5428 5430 5434 5437 5438 5434 5425 5428 5434 5437 5440 5444 5449 5454 5456 5456
5374 5377 5382 5389 5395 5402 5407 5411 5413 5414 5415 5416 5417 5417 5418 5419 5420 5421 5423 5425 5427 5428 5429 5430 5431 5433 5434 5432 5428 5426 5431 5436 5440 5442 5445 5447 5449 5450
5373 5376 5380 5387 5393 5399 5404 5408 5411 5412 5413 5414 5414 5414 5415 5416 5417 5420 5422 5424 5428 5429 5428 5426 5426 5428 5429 5430 5429 5428 5430 5434 5438 5441 5444 5447 5448 5448
5371 5375 5379 5385 5390 5396 5401 5405 5408 5410 5411 5412 5412 5412 5412 5413 5416 5419 5422 5425 5427 5428 5427 5427 5429 5431 5432 5429 5427 5427 5429 5432 5435 5439 5441 5444 5447 5447
5368 5372 5376 5382 5388 5393 5398 5402 5405 5407 5409 5409 5410 5410 5410 5412 5414 5418 5421 5424 5426 5427 5428 5428 5429 5429 5429 5428 5426 5427 5428 5429 5431 5433 5433 5437 5440 5439